Overview Statistics Trail Chart Weather Telemetry Raw packets
 

This is the latest recevied weather packets stored in our database for station/object N9BLE. If no packets are shown the sender has not sent any weather packets the latest 10 day(s).

<< 22 23 24 25 26 27 28 >>
Time Temp. Humidity Pressure Rain* Wind** Luminosity Snow
1777888721 7.22° C 82% 1007.9 hPa 0 mm - 0 W/m² -
1777888416 7.22° C 81% 1008 hPa 0 mm - 0 W/m² -
1777888113 7.22° C 80% 1007.8 hPa 0 mm - 0 W/m² -
1777887811 8.33° C 77% 1007.8 hPa 0 mm - 0 W/m² -
1777887507 8.33° C 76% 1007.9 hPa 0 mm - 0 W/m² -
1777887203 8.33° C 76% 1008 hPa 0 mm - 0 W/m² -
1777886899 8.33° C 77% 1007.7 hPa 0 mm - 0 W/m² -
1777886594 8.89° C 76% 1008 hPa 0 mm - 0 W/m² -
1777886293 8.89° C 76% 1007.8 hPa 0 mm - 0 W/m² -
1777885990 8.89° C 76% 1007.7 hPa 0 mm - 0 W/m² -
1777885689 8.89° C 77% 1008 hPa 0 mm - 0 W/m² -
1777885386 8.89° C 77% 1007.8 hPa 0 mm - 0 W/m² -
1777885085 9.44° C 75% 1008 hPa 0 mm - 0 W/m² -
1777884781 9.44° C 75% 1008 hPa 0 mm - 0 W/m² -
1777884476 9.44° C 75% 1007.8 hPa 0 mm - 0 W/m² -
1777884175 9.44° C 75% 1007.8 hPa 0 mm - 0 W/m² -
1777883871 8.89° C 77% 1007.8 hPa 0 mm - 0 W/m² -
1777883568 8.89° C 78% 1007.9 hPa 0 mm - 0 W/m² -
1777883264 8.89° C 77% 1007.9 hPa 0 mm - 0 W/m² -
1777882960 8.89° C 78% 1008 hPa 0 mm - 0 W/m² -
1777882657 8.89° C 77% 1007.9 hPa 0 mm - 0 W/m² -
1777882353 8.89° C 78% 1007.8 hPa 0 mm - 0 W/m² -
1777882050 8.89° C 79% 1008.1 hPa 0 mm - 0 W/m² -
1777881746 8.89° C 79% 1007.8 hPa 0 mm - 0 W/m² -
1777881444 8.89° C 79% 1007.8 hPa 0 mm - 0 W/m² -

* Rain latest hour (hover to see other rain measurements)
** Current wind speed in m/s (hover to see current wind gust speed)